www.pogodaiklimat.ru
Время
(UTC), дата
12 17.01
15 17.01
18 17.01
21 17.01
00 18.01
03 18.01
06 18.01
09 18.01
12 18.01
15 18.01
18 18.01
21 18.01
00 19.01
03 19.01
06 19.01
09 19.01
12 19.01
15 19.01
18 19.01
21 19.01
00 20.01
03 20.01
06 20.01
09 20.01
12 20.01
15 20.01
18 20.01
21 20.01
00 21.01
03 21.01
06 21.01
09 21.01
12 21.01
15 21.01
18 21.01
21 21.01
00 22.01
03 22.01
06 22.01
09 22.01
12 22.01
15 22.01
18 22.01
21 22.01
00 23.01
03 23.01
06 23.01
09 23.01
12 23.01
15 23.01
18 23.01
21 23.01
00 24.01
03 24.01
06 24.01
Ветер
(напр.,м/с)
Видим. Явления Облачность Т
(С)
Тd
(С)
f
(%)
Тe
(С)
Тes
(С)
Комфортность P
(гПа)
Po
(гПа)
Тmin
(С)
Tmax
(С)
R
(мм)
R24
(мм)
S
(см)
ЮЗ 2 10 км ясно -20.4 -22.9 80 -26 -26 по сезону 998.0 995.8
ЮЗ 2 4000 м слаб. снег 10/8 300 м
[Frnb As trans]
-12.3 -14.2 86 -17 -17 по сезону 997.6 995.5 -12.2 0.0
ЮЗ 4 4000 м слаб. снег 10/8 270 м
[Frnb Ac As]
-10.6 -12.3 87 -18 -18 по сезону 997.1 995.0
З 5 4000 м слаб. снег {метель} 10/8 210 м
[Frnb As op]
-10.3 -12.2 86 -18 -18 по сезону 996.4 994.3
ЮЗ 2 10 км {снег, метель} 6/0
[Ac trans Ci fib]
-13.6 -15.6 85 -18 -18 по сезону 997.0 994.9
З 4 10 км 8/0
[Ac trans Ci fib]
-10.7 -12.9 84 -18 -18 по сезону 998.4 996.3 -16.7 1 56
Ю 3 20 км 8/3 600 м
[Sc Ac lent Ci fib]
-14.6 -16.5 85 -21 -21 по сезону 999.3 997.1 -14.6
Ю 3 4000 м слаб. ливневой снег 10/6 400 м
[Cb calv Ac trans]
-11.8 -13.8 85 -18 -18 по сезону 998.7 996.6
З 4
{10}
10 км позёмок {ливн. осадки} 3/0
[Ci fib]
-14.9 -18.4 75 -23 -23 по сезону 1001.4 999.2
СЗ 3 10 км {метель} 8/0
[Ac trans Ci fib]
-18.7 -21.8 76 -26 -26 прохладно 1006.1 1003.9 -10.6 0.3
СЗ 4 10 км {метель} 8/0
[Ci fib]
-19.2 -25.8 56 -28 -28 холодно 1009.6 1007.4
З 2 10 км 3/0
[Ac trans]
-22.2 -27.3 63 -28 -28 холодно 1011.4 1009.2
ЮЗ 3 10 км 5/0
[Ci fib]
-19.1 -24.9 60 -27 -27 очень
холодно
1011.3 1009.1
СЗ 3 10 км 10/0
[Ci fib]
-20.2 -23.5 75 -28 -28 очень
холодно
1011.3 1009.1 -25.1 56
З 3 20 км 8/0
[Ac trans]
-17.0 -21.2 70 -24 -24 прохладно 1011.7 1009.5
З 1 20 км 10/0
[Ac trans Ci fib]
-15.9 -20.6 67 -19 -19 по сезону 1012.1 1009.9
ЮЗ 3 10 км 8/0
[Ac trans]
-14.3 -18.8 69 -21 -21 по сезону 1011.9 1009.7
Ю 2 4000 м слаб. снег 10/5 330 м
[Frnb As op]
-15.3 -17.9 80 -20 -20 по сезону 1012.0 1009.8 -13.7 0.0
штиль 0 10 км {снег} 9/4 600 м
[Sc Ac trans]
-14.4 -17.3 79 -14 -14 по сезону 1011.7 1009.5
З 2 10 км 10/5 800 м
[Sc Ac trans Ci sp]
-13.5 -15.6 84 -18 -18 по сезону 1011.2 1009.0
ЮЗ 4 10 км 10/6 1000 м
[Sc Ac trans]
-8.9 -11.5 81 -16 -16 тепло 1008.0 1005.9
З 4
{11}
27 км позёмок {ливн. осадки} 10/3 1000 м
[Cu hum Ac trans Ci sp]
-4.9 -8.7 75 -11 -11 тепло 1005.6 1003.5 -17.3 0.0 56
З 7-12
{15}
20 км позёмок {ливн. осадки} 8/3 1000 м
[Sc diur, vesp Ac trans Ci fib]
-7.3 -11.5 72 -16 -16 тепло 1005.0 1002.9
З 4
{12}
20 км {метель} 9/0
[Ac trans]
-6.5 -10.7 72 -13 -13 тепло 1007.7 1005.6
З 4
{12}
10 км {метель} 10/0
[Ac und]
-7.4 -10.6 78 -14 -14 тепло 1008.8 1006.7
З 6-10
{12}
10 км позёмок 10/5 1500 м
[Sc diur, vesp Ac trans]
-8.3 -11.9 75 -17 -17 тепло 1009.0 1006.9 -4.8
В 1
{12}
10 км {метель} 8/0
[Ac trans]
-10.1 -14.5 70 -12 -12 тепло 1008.8 1006.7
З 4 10 км 10/0
[Ac und]
-10.5 -15.1 69 -17 -17 тепло 1007.6 1005.5
Ю 3 10 км 10/0
[Ac trans Ci fib]
-14.5 -17.8 76 -21 -21 по сезону 1006.3 1004.1
Ю 3 10 км ясно -19.2 -21.8 80 -27 -27 по сезону 1004.0 1001.8 -19.2 54
Ю 3 20 км 8/0
[Ac trans Ci fib]
-21.2 -23.9 79 -29 -29 по сезону 1000.8 998.6 -21.3
Ю 3 20 км 10/0
[Ci fib]
-22.2 -25.1 77 -30 -30 по сезону 998.8 996.6
Ю 4 10 км 9/0
[Ac trans Ci fib]
-22.3 -25.3 76 -32 -32 опасность
обморожения
995.6 993.4
Ю 2 4000 м слаб. снег 10/6 300 м
[Frnb Ac As]
-22.6 -25.5 77 -29 -29 по сезону 993.3 991.1 -19.2 0.0
З 1 4000 м слаб. снег 10/8 270 м
[Frnb Ac As]
-21.1 -23.9 78 -24 -24 по сезону 990.9 988.7
СЗ 1 4000 м слаб. снег 10/8 240 м
[Frnb Ac As]
-20.6 -23.4 78 -24 -24 по сезону 988.8 986.6
штиль 0 4000 м слаб. снег 10/8 240 м
[Frnb Ac As]
-18.9 -21.5 80 -19 -19 тепло 986.8 984.7
штиль 0 4000 м слаб. снег 10/8 210 м
[Frnb Ac As]
-16.8 -19.1 82 -17 -17 тепло 985.2 983.1 -22.6 0.7 55
Ю 4 10 км слаб. снег 10/8 270 м
[Frnb Ac As]
-12.9 -14.9 85 -20 -20 по сезону 984.5 982.4
Ю 2 10 км слаб. снег 10/0 180 м
[As op]
-11.2 -13.1 86 -16 -16 тепло 983.7 981.6
Ю 2 4000 м слаб. ливневой снег 10/6 450 м
[Cb calv Ac trans]
-10.1 -12.1 85 -15 -15 тепло 982.8 980.7
ЮВ 2 10 км {ливн. осадки} 8/4 600 м
[Sc diur, vesp Ac trans]
-11.4 -13.7 83 -16 -16 тепло 982.3 980.2 -10.1 0.6
ЮВ 3 4000 м слаб. снег 10/0 180 м
[As op]
-11.3 -13.4 84 -17 -17 тепло 981.8 979.7
ЮВ 3 4000 м слаб. снег 10/8 270 м
[Frnb Ac As]
-13.1 -15.8 80 -19 -19 тепло 982.4 980.3
ЮВ 2 4000 м слаб. ливневой снег 10/8 210 м
[Cb calv Ac trans]
-13.6 -15.9 83 -18 -18 тепло 982.7 980.6
ЮВ 1 4000 м слаб. снег 10/6 270 м
[Frnb Ac As]
-15.0 -17.2 83 -18 -18 тепло 983.1 981.0 -15.1 0.7 58
С 1 10 км слаб. снег 10/5 240 м
[Frnb Ac As]
-13.8 -16.1 83 -16 -16 тепло 983.5 981.4 -15.2
С 2 10 км слаб. снег 10/8 210 м
[Frnb Ac trans]
-15.0 -17.4 82 -20 -20 по сезону 983.9 981.8
С 1 10 км снежные кристаллы 10/8 240 м
[Frnb Ac As]
-13.8 -16.0 83 -16 -16 тепло 984.4 982.3
СВ 2 4000 м слаб. снег 10/6 240 м
[Frnb As op]
-13.8 -16.0 83 -19 -19 тепло 984.4 982.3 -13.1 0.5
СВ 2 4000 м слаб. снег 10/8 240 м
[Frnb Ac As]
-12.7 -14.8 84 -17 -17 тепло 984.0 981.9
СВ 2 4000 м слаб. снег 10/6 300 м
[Frnb Ac As]
-12.9 -14.9 85 -18 -18 тепло 983.9 981.8
СВ 3 4000 м слаб. снег 10/8 300 м
[Frnb Ac As]
-13.4 -15.4 85 -20 -20 по сезону 983.8 981.7
СВ 4 4000 м слаб. снег 10/8 180 м
[Frnb Ac As]
-13.0 -15.1 84 -20 -20 по сезону 983.3 981.2 -13.8 1 59
СВ 3 10 км слаб. снег 10/0
[Ac trans Cs]
-15.3 -17.5 83 -22 -22 по сезону 983.2 981.1 -15.3
Местоположение метеостанции Салехард (Ямало-Ненецкий АО, Россия): широта 66.53 долгота 66.67 высота над уровнем моря 16 м.
В архиве по умолчанию представлена погода в Салехарде за последнюю неделю. Архивные данные за месяц целиком и за предыдущие месяцы, начиная с января 2011 года, Вы можете получить, выбрав интересующий диапазон дат из раскрывающегося списка и нажав кнопку "Найти!".
*Определитесь, кто Вы:
Внимание! Время в таблицах - всемирное. Для получения местного времени необходимо прибавить поправку, которая равна 5 ч.
Смотрите также архив погоды в соседних городах и на ближайших метеорологических станциях:
Партнеры нашего сайта:      
Пояснения к столбцам:
  • Ветер - указаны скорость ветра в м/с - средняя за 10 мин, порывы в срок и между сроками (в фигурных скобках) и направление, откуда дует ветер: С - северный,
  • СВ - северо-восточный, В - восточный, ЮВ - юго-восточный, Ю - южный, ЮЗ - юго-западный, З - западный, СЗ - северо-западный.
  • Видимость - горизонтальная дальность видимости в метрах или километрах. При видимости от 1 до 10 км при отсутствии осадков обычно наблюдается дымка, при ухудшении видимости до 1 км и менее - туман. В сухую погоду видимость может ухудшаться дымом, пылью или мглою.
  • Явления - указаны атмосферные явления, наблюдавшиеся в срок или в последний час перед сроком; фигурными скобками обозначены явления, наблюдавшиеся между сроками (за 1-3 часа до срока); квадратными скобками обозначены град или гололедные отложения с указанием их диаметра в мм.
  • Облачность - указаны через наклонную черту общая и нижняя облачность в баллах и высота нижней границы облаков в метрах; квадратными скобками обозначены формы облаков: Ci - перистые, Cs - перисто-слоистые, Cc - перисто-кучевые, Ac - высококучевые, As - высокослоистые, Sc - слоисто-кучевые, Ns - слоисто-дождевые, Cu - кучевые, Cb - кучево-дождевые. Подробнее классификацию облаков см. в Атласе облаков (PDF).
  • T - Температура воздуха - температура, измеренная на высоте 2 м над землей.
  • Td - Температура точки росы - температура, при понижении до которой содержащийся в воздухе водяной пар достигнет насыщения.
  • f - Относительная влажность воздуха - влажноcть воздуха, измеренная на высоте 2 м над землей.
  • Te - Эффективная температура - температура, которую ощущает одетый по сезону человек в тени. Характеристика душности погоды. При расчете учитывается влияние влажности воздуха и скорости ветра на теплоощущения человека.
  • Tes - Эффективная температура на солнце - температура, которую ощущает человек, с поправкой на солнечный нагрев. Характеристика знойности погоды. Зависит от высоты солнца над горизонтом, облачности и скорости ветра. Ночью, в пасмурную погоду, а также при ветре 12 м/с и более поправка равна нулю.
  • P - Атмосферное давление - приведенное к уровню моря атмосферное давление.
  • Po - Атмосферное давление - измеренное на уровне метеостанции атмосферное давление.
  • Tmin - Минимальная температура - минимум температуры воздуха на высоте 2 м над землей.
  • Tmax - Максимальная температура - максимум температуры воздуха на высоте 2 м над землей.
  • R - Количество осадков - Количество выпавших осадков за период времени, мм. При наведении курсора мыши на число - период времени, за который выпало указанное количество осадков.
  • R24 - Количество осадков - Количество выпавших осадков за 24 часа, мм.
  • S - Снежный покров - Высота снежного покрова, см. При наведении курсора мыши на число - состояние снежного покрова и степень покрытия местности в баллах.